Lid_Strength_Index
2 3 0 3 11 12 14 11 8 9 9 6 6 7 8 7 9 13 2 1 0 0 -0 -1 -2 -2 -2 -2 -2 -2 -2 -1 -1 -1 -2 -2 -1 -1 -1 -1 -1 -1 -1 -1 -1 -1 -1 -1 -1
3 1 2 6 13 16 14 9 10 8 6 5 6 6 8 9 5 4 3 0 -0 0 0 -0 -2 -2 -2 -2 -2 -2 -1 -1 -2 -1 -1 -1 -1 -1 -1 -1 -1 -1 -1 -1 -1 -1 -1 -1 -1
1 1 7 10 13 15 15 10 8 7 5 6 7 5 6 7 4 3 1 0 0 0 -0 -0 -1 -2 -2 -2 -2 -2 -2 -1 -2 -2 -1 -1 -1 -1 -2 -1 -1 -1 -1 -1 -1 -1 -1 -1 -1
2 4 6 12 14 11 9 8 7 7 6 5 6 8 5 3 3 2 1 0 1 0 -0 -1 -2 -2 -2 -2 -1 -2 -2 -1 -2 -2 -1 -1 -1 -1 -1 -1 -1 -1 -1 -1 -1 -1 -1 -1 -1
2 6 12 13 12 9 7 6 6 7 7 7 6 8 7 3 1 1 1 0 1 1 -0 -0 -2 -2 -2 -2 -2 -1 -1 -1 -1 -1 -2 -2 -1 -1 -1 -1 -1 -1 -1 -1 -1 -1 -1 -1 -1
7 7 13 15 12 8 7 6 6 7 6 6 7 7 7 2 2 1 1 1 0 0 0 -0 -1 -2 -2 -2 -2 -2 -1 -1 -1 -2 -2 -2 -1 -1 -1 -1 -1 -1 -1 -1 -1 -1 -1 -1 -1
8 10 13 13 12 9 7 5 7 7 7 7 5 9 6 4 2 1 1 0 0 0 0 -0 -0 -1 -2 -2 -2 -2 -2 -1 -1 -1 -2 -2 -1 -1 -1 -1 -1 -1 -1 -1 -1 -1 -1 -1 -2
7 9 12 11 13 11 6 6 5 6 7 4 4 8 8 4 1 1 1 1 1 0 -0 -0 -1 -1 0 -0 -2 -2 -2 -1 -1 -1 -1 -2 -2 -1 -1 -2 -2 -1 -1 -2 -2 -2 -2 -2 -2
5 12 14 13 12 10 6 7 5 4 5 5 4 5 3 2 1 2 2 2 1 1 0 0 0 -0 -1 -1 -1 -2 -1 -1 -1 -1 -1 -1 0 -0 -0 -1 -2 -2 -2 -2 -2 -2 -2 -2 -2
8 12 12 9 8 9 8 6 6 6 6 6 5 4 2 2 3 3 3 3 2 2 1 0 0 0 -0 -0 -0 -0 -0 -0 -0 -0 -0 0 0 -0 -1 -1 -2 -2 -2 -2 -2 -2 -2 -2 -0
8 11 9 8 7 7 8 6 5 6 8 6 6 5 4 3 3 3 3 3 2 1 1 0 0 -0 -0 0 -0 -0 0 -0 -0 -0 -0 -0 -0 1 1 0 -0 0 -1 -0 -1 -1 -0 -0 -0
10 8 8 8 6 7 8 6 6 6 6 4 4 4 4 4 4 4 3 3 2 2 1 2 0 -0 -0 -0 -0 -0 -0 -0 1 -0 -0 -0 -0 0 -0 0 -0 0 -0 0 -0 -0 0 -0 -0
9 8 7 7 7 7 6 7 7 6 4 3 3 3 4 4 4 3 3 2 2 2 1 1 0 0 -0 -0 0 0 -0 0 0 -0 -0 -0 0 0 0 -0 0 1 0 0 0 0 0 -0 -0
7 8 8 7 7 7 8 7 6 6 4 4 4 4 4 4 4 3 3 3 3 2 2 2 0 0 -0 -0 0 0 0 0 1 -0 -0 -1 -0 -0 1 0 0 1 0 -0 0 0 0 0 0
7 9 8 7 7 8 7 9 9 6 5 5 5 4 4 3 3 3 3 3 2 2 3 3 2 0 1 1 0 -0 0 -1 1 0 -1 -0 -0 0 2 0 -0 -0 0 1 0 0 0 0 0
9 9 13 9 8 8 8 13 7 6 6 7 5 4 4 4 3 3 2 2 2 1 2 2 1 0 0 1 0 1 0 -0 -0 0 0 0 -1 -1 -1 1 1 1 1 1 0 1 1 1 2
11 15 12 11 8 9 9 12 8 6 6 7 6 5 5 5 3 3 2 2 2 1 1 1 1 1 1 0 1 0 0 0 1 0 1 0 3 2 0 1 1 1 2 3 3 2 1 2 3
15 14 13 13 9 9 11 11 9 7 7 7 7 6 5 5 4 2 2 2 2 1 1 1 1 1 0 3 1 1 0 1 0 0 2 2 1 0 -0 0 -0 1 1 3 3 4 1 1 2
10 11 13 11 8 10 11 11 10 8 8 8 7 6 6 5 3 3 2 2 2 1 1 1 1 1 1 1 1 2 2 1 0 2 1 1 0 2 -0 2 0 2 2 2 4 4 2 2 2
10 12 13 10 9 10 11 11 10 9 8 7 7 7 6 5 4 3 3 2 2 2 2 2 1 1 1 1 1 1 1 1 0 0 0 0 0 1 2 2 1 1 2 4 4 3 4 2 3
11 12 12 13 10 9 11 13 12 9 8 7 6 6 6 6 5 4 3 3 2 2 2 2 1 1 1 1 1 1 1 1 1 1 1 1 1 2 3 2 1 0 1 2 4 2 4 5 4
12 8 10 11 13 17 11 19 13 11 10 8 7 7 6 5 5 4 4 3 3 2 1 1 1 1 1 1 1 1 2 3 2 1 1 0 0 0 2 2 2 3 2 5 3 0 1 1 3
9 7 8 10 12 13 14 16 14 11 12 10 8 7 6 5 5 4 4 3 2 2 2 1 1 1 1 1 1 1 2 1 1 1 1 1 0 0 0 0 2 2 2 1 1 1 1 1 2
7 8 9 10 12 17 14 15 16 13 11 9 8 7 6 5 5 4 3 3 2 2 2 2 2 1 1 1 1 1 2 2 2 2 2 1 1 1 0 0 1 0 0 1 1 1 1 1 1
9 12 15 15 15 18 14 15 15 11 9 8 8 7 6 5 5 5 4 4 3 3 2 2 2 2 1 1 1 1 1 2 2 2 1 2 2 2 1 0 0 1 1 0 0 1 1 1 1
10 12 15 18 17 16 13 17 15 9 8 7 6 6 6 5 5 4 4 4 3 3 2 2 2 2 2 1 1 1 1 1 1 1 1 2 1 1 2 0 0 0 0 0 0 1 1 0 1
11 13 10 14 13 16 15 14 11 9 9 8 7 7 6 6 5 5 4 4 3 3 3 2 2 2 2 1 1 1 1 1 1 1 1 1 1 0 1 1 1 0 0 0 0 1 1 1 1
10 10 12 13 19 20 18 17 17 12 11 9 8 7 6 5 5 4 4 4 3 2 2 2 2 2 2 1 1 1 1 1 1 1 1 1 1 1 1 1 1 0 0 0 0 1 1 2 2
11 12 12 12 14 18 20 18 11 11 9 9 8 7 6 5 5 5 4 3 3 2 2 2 2 2 2 1 1 1 1 1 1 1 1 1 1 1 1 1 1 1 1 0 1 1 1 1 2
9 11 11 15 17 16 17 18 9 9 8 8 8 7 6 5 5 4 4 3 3 3 3 2 2 2 2 1 1 1 1 1 1 1 1 0 1 0 1 1 1 1 1 1 2 1 1 1 2